Simultaneous Nadir Overpasses (SNOs) Predictions

Prediction of SNOs between GOES-15 and METOP-B Satellite Orbit:

Table of predicted SNOs for the next 14.0 days since TLE Epoch: 7/20/2024
Index Date Time (GOES-15) GOES-15 Lat,Lon METOP-B Lat,Lon Distance(km) Time Diff (sec)
1 07/20/2024 05:19:59 -0.05, 61.13 0.09, 60.56 64.54 80
2 07/22/2024 17:18:26 0.04, 61.21 -0.02, 60.92 33.46 80
3 07/25/2024 05:14:04 -0.04, 61.16 -0.05, 61.31 17.16 80
4 07/27/2024 17:12:30 0.02, 61.25 0.08, 61.68 47.66 80
5 07/29/2024 05:34:05 0.03, 61.20 0.92, 57.09 467.81 80
6 07/30/2024 05:10:47 -0.00, 61.21 -0.18, 62.07 97.23 80
7 07/31/2024 17:32:30 -0.05, 61.31 -0.91, 57.46 438.70 80
8 08/01/2024 17:09:13 -0.01, 61.33 0.26, 62.43 126.25 80
